| time (UTC) | temp F | wind direction | speed MPH | gust MPH | rain 1hr in | rain 24hr in | rain mn in | humidity % | barometer mb |
| 20260901050054 | 80 | 0 | 1.0 | 6.0 | 0.00 | 0.25 | 0.00 | 87 | 1016.9 |
| 20260901044618 | 80 | 50 | 1.0 | 3.0 | 0.00 | 0.25 | 0.25 | 87 | 1016.8 |
| 20260901043059 | 80 | 0 | 1.0 | 6.0 | 0.00 | 0.25 | 0.25 | 87 | 1016.8 |
| 20260901041559 | 80 | 0 | 0.0 | 4.0 | 0.00 | 0.25 | 0.25 | 86 | 1017.0 |
| 20260901040055 | 80 | 0 | 0.0 | 3.0 | 0.00 | 0.25 | 0.25 | 86 | 1016.8 |
| 20260901034559 | 80 | 0 | 1.0 | 3.0 | 0.00 | 0.25 | 0.25 | 86 | 1016.8 |
| 20260901033053 | 80 | 0 | 0.0 | 3.0 | 0.00 | 0.25 | 0.25 | 85 | 1017.0 |
| 20260901031556 | 80 | 0 | 0.0 | 3.0 | 0.00 | 0.25 | 0.25 | 85 | 1016.8 |
| 20260901030058 | 80 | 146 | 0.0 | 2.0 | 0.00 | 0.25 | 0.25 | 85 | 1016.6 |
| 20260901024608 | 81 | 0 | 0.0 | 4.0 | 0.00 | 0.25 | 0.25 | 85 | 1016.3 |
| 20260901023101 | 81 | 0 | 0.0 | 5.0 | 0.00 | 0.25 | 0.25 | 85 | 1016.4 |
| 20260901021557 | 81 | 86 | 1.0 | 6.0 | 0.00 | 0.25 | 0.25 | 84 | 1016.4 |
| 20260901020051 | 81 | 84 | 0.0 | 4.0 | 0.00 | 0.25 | 0.25 | 83 | 1016.3 |
| 20260901014603 | 81 | 78 | 0.0 | 2.0 | 0.00 | 0.25 | 0.25 | 83 | 1016.0 |
| 20260901013057 | 82 | 0 | 0.0 | 2.0 | 0.00 | 0.25 | 0.25 | 83 | 1015.8 |
| 20260901011603 | 82 | 55 | 0.0 | 7.0 | 0.00 | 0.25 | 0.25 | 83 | 1015.8 |
| 20260901010056 | 82 | 64 | 2.0 | 8.0 | 0.00 | 0.25 | 0.25 | 83 | 1015.8 |
| 20260901004605 | 82 | 59 | 0.0 | 4.0 | 0.00 | 0.25 | 0.25 | 82 | 1015.9 |
| 20260901003107 | 83 | 0 | 0.0 | 3.0 | 0.00 | 0.25 | 0.25 | 82 | 1015.9 |
| 20260901001552 | 83 | 145 | 0.0 | 4.0 | 0.00 | 0.25 | 0.25 | 82 | 1015.8 |
| 20260901000055 | 83 | 57 | 1.0 | 9.0 | 0.00 | 0.25 | 0.25 | 81 | 1016.0 |
| 20260831234546 | 84 | 0 | 1.0 | 6.0 | 0.00 | 0.25 | 0.25 | 81 | 1015.9 |
| 20260831233100 | 84 | 46 | 1.0 | 6.0 | 0.00 | 0.25 | 0.25 | 82 | 1015.8 |
| 20260831231559 | 84 | 0 | 1.0 | 10.0 | 0.00 | 0.25 | 0.25 | 82 | 1015.9 |
| 20260831230058 | 84 | 87 | 0.0 | 7.0 | 0.00 | 0.25 | 0.25 | 83 | 1016.1 |
| 20260831224603 | 84 | 116 | 1.0 | 6.0 | 0.00 | 0.25 | 0.25 | 83 | 1016.2 |
| 20260831223047 | 84 | 0 | 0.0 | 3.0 | 0.00 | 0.25 | 0.25 | 83 | 1016.3 |
| 20260831221557 | 85 | 0 | 1.0 | 4.0 | 0.00 | 0.25 | 0.25 | 84 | 1016.4 |
| 20260831220052 | 85 | 5 | 1.0 | 8.0 | 0.00 | 0.25 | 0.25 | 86 | 1016.3 |
| 20260831214622 | 84 | 0 | 0.0 | 4.0 | 0.00 | 0.25 | 0.25 | 87 | 1016.3 |
| 20260831213059 | 83 | 0 | 0.0 | 3.0 | 0.00 | 0.25 | 0.25 | 87 | 1016.2 |
| 20260831211554 | 82 | 0 | 1.0 | 6.0 | 0.00 | 0.25 | 0.25 | 87 | 1016.3 |
| 20260831210049 | 82 | 0 | 0.0 | 3.0 | 0.00 | 0.25 | 0.25 | 87 | 1016.4 |
| 20260831204602 | 81 | 40 | 0.0 | 3.0 | 0.00 | 0.25 | 0.25 | 88 | 1016.9 |
| 20260831203055 | 80 | 40 | 1.0 | 3.0 | 0.00 | 0.25 | 0.25 | 86 | 1017.0 |
| 20260831201549 | 79 | 0 | 0.0 | 3.0 | 0.25 | 0.25 | 0.25 | 85 | 1016.8 |
| 20260831200053 | 80 | 315 | 0.0 | 3.0 | 0.25 | 0.25 | 0.25 | 85 | 1017.3 |
| 20260831194600 | 80 | 316 | 1.0 | 6.0 | 0.25 | 0.25 | 0.25 | 85 | 1017.4 |
| 20260831193046 | 82 | 57 | 2.0 | 12.0 | 0.24 | 0.24 | 0.24 | 82 | 1017.7 |
| 20260831191553 | 88 | 131 | 1.0 | 5.0 | 0.00 | 0.00 | 0.00 | 79 | 1017.4 |
| 20260831190113 | 89 | 337 | 1.0 | 6.0 | 0.00 | 0.00 | 0.00 | 77 | 1017.1 |
| 20260831184604 | 89 | 76 | 1.0 | 6.0 | 0.00 | 0.00 | 0.00 | 77 | 1017.4 |
| 20260831183101 | 89 | 57 | 1.0 | 6.0 | 0.00 | 0.00 | 0.00 | 76 | 1017.3 |
| 20260831181554 | 90 | 0 | 2.0 | 6.0 | 0.00 | 0.00 | 0.00 | 77 | 1017.2 |
| 20260831180057 | 89 | 0 | 0.0 | 5.0 | 0.00 | 0.00 | 0.00 | 79 | 1017.5 |
| 20260831174609 | 89 | 64 | 0.0 | 4.0 | 0.00 | 0.00 | 0.00 | 78 | 1017.7 |
| 20260831173057 | 89 | 0 | 1.0 | 6.0 | 0.00 | 0.00 | 0.00 | 79 | 1017.8 |
| 20260831171555 | 88 | 57 | 1.0 | 5.0 | 0.00 | 0.00 | 0.00 | 81 | 1018.1 |
| 20260831164607 | 87 | 122 | 1.0 | 5.0 | 0.00 | 0.00 | 0.00 | 82 | 1018.1 |
| 20260831163057 | 87 | 69 | 1.0 | 5.0 | 0.00 | 0.00 | 0.00 | 83 | 1018.1 |
| 20260831161558 | 86 | 72 | 1.0 | 6.0 | 0.00 | 0.00 | 0.00 | 83 | 1018.1 |
| 20260831160051 | 86 | 0 | 0.0 | 5.0 | 0.00 | 0.00 | 0.00 | 85 | 1018.4 |
| 20260831154629 | 85 | 77 | 1.0 | 5.0 | 0.00 | 0.00 | 0.00 | 86 | 1018.3 |
| 20260831153059 | 84 | 52 | 1.0 | 7.0 | 0.00 | 0.00 | 0.00 | 87 | 1018.5 |
| 20260831151553 | 84 | 74 | 0.0 | 5.0 | 0.00 | 0.00 | 0.00 | 88 | 1018.7 |
| 20260831150107 | 84 | 78 | 1.0 | 8.0 | 0.00 | 0.00 | 0.00 | 88 | 1018.6 |
| 20260831144600 | 83 | 0 | 1.0 | 5.0 | 0.00 | 0.00 | 0.00 | 89 | 1018.5 |
| 20260831143527 | 82 | 30 | 1.0 | 5.0 | 0.00 | 0.00 | 0.00 | 89 | 1018.5 |
| 20260831143417 | 82 | 30 | 1.0 | 5.0 | 0.00 | 0.00 | 0.00 | 89 | 1018.5 |
| 20260831143318 | 82 | 30 | 1.0 | 5.0 | 0.00 | 0.00 | 0.00 | 89 | 1018.5 |
| 20260831143220 | 82 | 30 | 1.0 | 5.0 | 0.00 | 0.00 | 0.00 | 89 | 1018.5 |
| 20260831141557 | 82 | 61 | 1.0 | 6.0 | 0.00 | 0.00 | 0.00 | 90 | 1018.3 |
| 20260831140054 | 81 | 74 | 1.0 | 8.0 | 0.00 | 0.00 | 0.00 | 91 | 1018.1 |
| 20260831134604 | 80 | 0 | 0.0 | 5.0 | 0.00 | 0.00 | 0.00 | 91 | 1018.0 |
| 20260831133059 | 79 | 0 | 0.0 | 5.0 | 0.00 | 0.00 | 0.00 | 92 | 1017.9 |
| 20260831131600 | 79 | 5 | 0.0 | 4.0 | 0.00 | 0.00 | 0.00 | 92 | 1017.8 |
| 20260831130113 | 78 | 41 | 1.0 | 3.0 | 0.00 | 0.00 | 0.00 | 91 | 1017.7 |
| 20260831124603 | 77 | 45 | 0.0 | 2.0 | 0.00 | 0.00 | 0.00 | 91 | 1017.6 |
| 20260831123100 | 77 | 64 | 0.0 | 3.0 | 0.00 | 0.00 | 0.00 | 91 | 1017.6 |
| 20260831121558 | 77 | 98 | 0.0 | 4.0 | 0.00 | 0.00 | 0.00 | 91 | 1017.5 |
| 20260831120056 | 76 | 111 | 0.0 | 2.0 | 0.00 | 0.00 | 0.00 | 90 | 1017.4 |
| 20260831114600 | 77 | 0 | 0.0 | 0.0 | 0.00 | 0.00 | 0.00 | 91 | 1017.3 |
| 20260831113114 | 76 | 0 | 0.0 | 0.0 | 0.00 | 0.00 | 0.00 | 90 | 1017.2 |
| 20260831111551 | 76 | 0 | 0.0 | 0.0 | 0.00 | 0.00 | 0.00 | 90 | 1016.9 |
| 20260831110100 | 77 | 0 | 0.0 | 0.0 | 0.00 | 0.00 | 0.00 | 90 | 1016.8 |
| 20260831104601 | 77 | 0 | 0.0 | 0.0 | 0.00 | 0.00 | 0.00 | 90 | 1016.8 |
| 20260831103058 | 77 | 0 | 0.0 | 0.0 | 0.00 | 0.00 | 0.00 | 91 | 1016.6 |
| 20260831101555 | 77 | 0 | 0.0 | 0.0 | 0.00 | 0.00 | 0.00 | 90 | 1016.7 |
| 20260831100048 | 77 | 0 | 0.0 | 0.0 | 0.00 | 0.00 | 0.00 | 89 | 1016.5 |
| 20260831094600 | 77 | 0 | 0.0 | 0.0 | 0.00 | 0.00 | 0.00 | 89 | 1016.6 |
| 20260831093057 | 77 | 0 | 0.0 | 0.0 | 0.00 | 0.00 | 0.00 | 90 | 1016.5 |
| 20260831091552 | 77 | 0 | 0.0 | 0.0 | 0.00 | 0.00 | 0.00 | 89 | 1016.5 |
| 20260831090107 | 77 | 0 | 0.0 | 0.0 | 0.00 | 0.00 | 0.00 | 88 | 1016.5 |
| 20260831084602 | 77 | 0 | 0.0 | 0.0 | 0.00 | 0.00 | 0.00 | 88 | 1016.4 |
| 20260831083057 | 78 | 0 | 0.0 | 0.0 | 0.00 | 0.00 | 0.00 | 88 | 1016.5 |
| 20260831081609 | 78 | 0 | 0.0 | 0.0 | 0.00 | 0.00 | 0.00 | 88 | 1016.5 |
| 20260831080049 | 78 | 0 | 0.0 | 0.0 | 0.00 | 0.00 | 0.00 | 88 | 1016.5 |
| 20260831074600 | 78 | 0 | 0.0 | 0.0 | 0.00 | 0.00 | 0.00 | 88 | 1016.6 |
| 20260831073051 | 78 | 113 | 0.0 | 1.0 | 0.00 | 0.00 | 0.00 | 88 | 1016.7 |
| 20260831071602 | 78 | 0 | 0.0 | 0.0 | 0.00 | 0.00 | 0.00 | 85 | 1016.8 |
| 20260831064553 | 78 | 0 | 0.0 | 0.0 | 0.00 | 0.00 | 0.00 | 85 | 1017.0 |
| 20260831063049 | 79 | 0 | 0.0 | 0.0 | 0.00 | 0.00 | 0.00 | 85 | 1017.2 |
| 20260831061605 | 79 | 0 | 0.0 | 0.0 | 0.00 | 0.00 | 0.00 | 84 | 1017.2 |
| 20260831060059 | 79 | 0 | 0.0 | 0.0 | 0.00 | 0.00 | 0.00 | 84 | 1017.3 |
| 20260831054553 | 79 | 0 | 0.0 | 0.0 | 0.00 | 0.00 | 0.00 | 84 | 1017.3 |
| 20260831053050 | 80 | 0 | 0.0 | 1.0 | 0.00 | 0.00 | 0.00 | 84 | 1017.2 |
| 20260831051608 | 80 | 0 | 0.0 | 1.0 | 0.00 | 0.00 | 0.00 | 84 | 1017.3 |